Tracking 28125 objects as of 2-Oct-2023
HD Live streaming from Space Station
objects crossing your sky now

THORAD DELTA 1 DEB

Track THORAD DELTA 1 DEB now!
10-day predictions


NORAD ID: 8311
Int'l Code: 1974-089BU
Perigee: 1,461.5 km
Apogee: 1,519.6 km
Inclination: 102.0 °
Period: 115.6 minutes
Semi major axis: 7861 km
RCS: 2.7637 m2 (large)
Launch date: November 15, 1974
Source: United States (US)
Launch site: AIR FORCE WESTERN TEST RANGE (AFWTR)

Note: This is SATELLITE DEBRIS
Your satellite tracking list
Your tracking list is empty




NASA's NSSDC Master Catalog

Two Line Element Set (TLE):
1 08311U 74089BU  23274.87574826 -.00000016  00000-0  20482-3 0  9993
2 08311 102.0071 230.4359 0036911  60.6580   1.5589 12.45495156222069
Source of the keplerian elements: AFSPC